• In Schweiz
  • Länderverzeichnis
  • Für 7 Tage
  • Wassertemperatur
  • Satellitenkarten
  • Wetterkarte
  • Widgets
  • user-avatar
    Anmelden

    Stündliche Wetter Búðardalur

    Heute, 21 Oktober, Sonntag

    Zeit Temperatur Niederschläge Wind Luftdruck Luftfeuchtigkeit
    00:00 0°C° 0.3 mm 15 m/S 736 mmHg 85%
    01:00 0°C° 0.3 mm 15 m/S 737 mmHg 85%
    02:00 -1°C° 0.3 mm 14 m/S 738 mmHg 85%
    03:00 -1°C° 0.5 mm 13 m/S 739 mmHg 86%
    04:00 -2°C° 0.5 mm 12 m/S 740 mmHg 87%
    05:00 -1°C° 0 mm 12 m/S 741 mmHg 87%
    06:00 -1°C° 0.5 mm 11 m/S 742 mmHg 88%
    07:00 0°C° 0.5 mm 9 m/S 743 mmHg 89%
    08:00 -1°C° 0.5 mm 8 m/S 743 mmHg 90%
    09:00 -1°C° 0.4 mm 7 m/S 744 mmHg 90%
    10:00 -1°C° 0.4 mm 6 m/S 746 mmHg 91%
    11:00 0°C° 0 mm 4 m/S 746 mmHg 90%
    12:00 0°C° 0.1 mm 4 m/S 747 mmHg 89%
    13:00 +1°C° 0.1 mm 4 m/S 748 mmHg 89%
    14:00 +1°C° 0.1 mm 5 m/S 749 mmHg 89%
    15:00 +1°C° 0.1 mm 6 m/S 749 mmHg 87%
    16:00 0°C° 0.1 mm 7 m/S 750 mmHg 86%
    17:00 0°C° 0.1 mm 8 m/S 750 mmHg 85%
    18:00 -1°C° 0.1 mm 8 m/S 751 mmHg 83%
    19:00 -1°C° 0.1 mm 9 m/S 751 mmHg 81%
    20:00 -2°C° 0.1 mm 10 m/S 752 mmHg 79%
    21:00 -2°C° 0 mm 10 m/S 752 mmHg 77%
    22:00 -2°C° 0 mm 10 m/S 752 mmHg 76%
    23:00 -2°C° 0 mm 11 m/S 752 mmHg 75%

    Morgen, 22 Oktober, Montag

    Zeit Temperatur Niederschläge Wind Luftdruck Luftfeuchtigkeit
    00:00 -2°C° 0 mm 10 m/S 752 mmHg 76%
    01:00 -1°C° 0 mm 9 m/S 751 mmHg 77%
    02:00 -1°C° 0 mm 9 m/S 751 mmHg 78%
    03:00 -1°C° 0.3 mm 7 m/S 750 mmHg 81%
    04:00 -1°C° 0.3 mm 6 m/S 750 mmHg 85%
    05:00 0°C° 0.3 mm 5 m/S 749 mmHg 89%
    06:00 0°C° 0.4 mm 4 m/S 749 mmHg 91%
    07:00 +2°C° 0.4 mm 3 m/S 748 mmHg 92%
    08:00 +3°C° 0.4 mm 2 m/S 748 mmHg 94%
    09:00 +3°C° 0.3 mm 2 m/S 748 mmHg 95%
    10:00 +3°C° 0.3 mm 2 m/S 749 mmHg 96%
    11:00 +3°C° 0.3 mm 2 m/S 749 mmHg 97%
    12:00 +2°C° 0.1 mm 3 m/S 749 mmHg 96%
    13:00 +2°C° 0.1 mm 3 m/S 750 mmHg 96%
    14:00 +1°C° 0.1 mm 4 m/S 750 mmHg 95%
    15:00 +1°C° 0 mm 4 m/S 751 mmHg 93%
    16:00 +1°C° 0 mm 4 m/S 751 mmHg 91%
    17:00 +1°C° 0 mm 5 m/S 752 mmHg 89%
    18:00 +1°C° 0 mm 5 m/S 753 mmHg 89%
    19:00 0°C° 0 mm 4 m/S 753 mmHg 88%
    20:00 0°C° 0 mm 4 m/S 754 mmHg 87%
    21:00 +1°C° 0 mm 3 m/S 755 mmHg 86%
    22:00 0°C° 0 mm 3 m/S 755 mmHg 85%
    23:00 +1°C° 0 mm 2 m/S 756 mmHg 84%

    übermorgen, 23 Oktober, Dienstag

    Zeit Temperatur Niederschläge Wind Luftdruck Luftfeuchtigkeit
    00:00 +1°C° 0 mm 2 m/S 756 mmHg 84%
    01:00 +2°C° 0 mm 1 m/S 757 mmHg 83%
    02:00 +1°C° 0 mm 1 m/S 757 mmHg 83%
    03:00 +2°C° 0 mm 1 m/S 758 mmHg 83%
    04:00 +2°C° 0 mm 1 m/S 758 mmHg 83%
    05:00 +2°C° 0 mm 1 m/S 758 mmHg 83%
    06:00 +2°C° 0 mm 1 m/S 758 mmHg 82%
    07:00 +2°C° 0 mm 1 m/S 758 mmHg 82%
    08:00 +1°C° 0 mm 1 m/S 759 mmHg 82%
    09:00 +1°C° 0 mm 2 m/S 759 mmHg 82%
    10:00 +1°C° 0 mm 2 m/S 759 mmHg 81%
    11:00 +1°C° 0 mm 2 m/S 759 mmHg 81%
    12:00 +2°C° 0 mm 2 m/S 759 mmHg 81%
    13:00 +2°C° 0 mm 2 m/S 759 mmHg 81%
    14:00 +2°C° 0 mm 2 m/S 759 mmHg 81%
    15:00 +2°C° 0.1 mm 2 m/S 759 mmHg 81%
    16:00 +2°C° 0.1 mm 2 m/S 758 mmHg 82%
    17:00 0°C° 0.1 mm 3 m/S 758 mmHg 82%
    18:00 0°C° 0.3 mm 3 m/S 758 mmHg 84%
    19:00 +1°C° 0.3 mm 3 m/S 757 mmHg 85%
    20:00 0°C° 0.3 mm 4 m/S 756 mmHg 87%
    21:00 0°C° 0.8 mm 4 m/S 755 mmHg 90%
    22:00 0°C° 0.8 mm 5 m/S 754 mmHg 93%
    23:00 0°C° 0.8 mm 5 m/S 752 mmHg 96%

    24 Oktober, Mittwoch

    Zeit Temperatur Niederschläge Wind Luftdruck Luftfeuchtigkeit
    00:00 +1°C° 1.6 mm 6 m/S 752 mmHg 96%
    01:00 +2°C° 1.6 mm 7 m/S 751 mmHg 97%
    02:00 +2°C° 1.6 mm 8 m/S 750 mmHg 98%
    03:00 +2°C° 0.2 mm 8 m/S 750 mmHg 97%
    04:00 +2°C° 0.2 mm 9 m/S 750 mmHg 96%
    05:00 +2°C° 0.2 mm 10 m/S 750 mmHg 95%
    06:00 +2°C° 0.3 mm 10 m/S 750 mmHg 94%
    07:00 +1°C° 0.3 mm 10 m/S 750 mmHg 93%
    08:00 +1°C° 0.3 mm 10 m/S 751 mmHg 93%
    09:00 +1°C° 0.5 mm 10 m/S 750 mmHg 93%
    10:00 +1°C° 0.5 mm 9 m/S 750 mmHg 94%
    11:00 +1°C° 0.5 mm 8 m/S 750 mmHg 94%
    12:00 +2°C° 0.3 mm 7 m/S 750 mmHg 95%
    13:00 +2°C° 0.3 mm 5 m/S 750 mmHg 96%
    14:00 +3°C° 0.3 mm 4 m/S 750 mmHg 96%
    15:00 +2°C° 0.3 mm 5 m/S 751 mmHg 96%
    16:00 +2°C° 0.3 mm 5 m/S 752 mmHg 95%
    17:00 +1°C° 0.3 mm 6 m/S 752 mmHg 95%
    18:00 +1°C° 0.2 mm 6 m/S 753 mmHg 93%
    19:00 -1°C° 0.2 mm 7 m/S 754 mmHg 91%
    20:00 -1°C° 0.2 mm 7 m/S 755 mmHg 89%
    21:00 -2°C° 0.2 mm 8 m/S 755 mmHg 88%
    22:00 -2°C° 0.2 mm 8 m/S 756 mmHg 88%
    23:00 -3°C° 0.2 mm 9 m/S 756 mmHg 87%

    25 Oktober, Donnerstag

    Zeit Temperatur Niederschläge Wind Luftdruck Luftfeuchtigkeit
    00:00 -2°C° 0.1 mm 8 m/S 757 mmHg 87%
    01:00 -2°C° 0.1 mm 8 m/S 757 mmHg 87%
    02:00 -2°C° 0.1 mm 7 m/S 758 mmHg 87%
    03:00 -2°C° 0.1 mm 8 m/S 758 mmHg 88%
    04:00 -2°C° 0.1 mm 8 m/S 759 mmHg 89%
    05:00 -2°C° 0.1 mm 8 m/S 760 mmHg 89%
    06:00 -3°C° 0.1 mm 9 m/S 760 mmHg 89%
    07:00 -4°C° 0.1 mm 9 m/S 761 mmHg 88%
    08:00 -4°C° 0.1 mm 9 m/S 762 mmHg 87%
    09:00 -4°C° 0 mm 9 m/S 763 mmHg 85%
    10:00 -4°C° 0 mm 8 m/S 764 mmHg 84%
    11:00 -5°C° 0 mm 8 m/S 765 mmHg 82%
    12:00 -4°C° 0.1 mm 7 m/S 766 mmHg 81%
    13:00 -4°C° 0.1 mm 7 m/S 766 mmHg 80%
    14:00 -4°C° 0.1 mm 6 m/S 767 mmHg 78%
    15:00 -4°C° 0 mm 6 m/S 767 mmHg 79%
    16:00 -5°C° 0 mm 6 m/S 768 mmHg 79%
    17:00 -5°C° 0 mm 6 m/S 769 mmHg 80%
    18:00 -5°C° 0 mm 6 m/S 769 mmHg 80%
    19:00 -5°C° 0 mm 6 m/S 770 mmHg 80%
    20:00 -5°C° 0 mm 6 m/S 771 mmHg 80%
    21:00 -5°C° 0 mm 6 m/S 771 mmHg 80%
    22:00 -6°C° 0 mm 5 m/S 772 mmHg 79%
    23:00 -6°C° 0 mm 5 m/S 772 mmHg 79%

    26 Oktober, Freitag

    Zeit Temperatur Niederschläge Wind Luftdruck Luftfeuchtigkeit
    00:00 -6°C° 0 mm 5 m/S 773 mmHg 78%
    01:00 -6°C° 0 mm 5 m/S 773 mmHg 77%
    02:00 -6°C° 0 mm 5 m/S 774 mmHg 76%
    03:00 -6°C° 0 mm 5 m/S 774 mmHg 75%
    04:00 -6°C° 0 mm 5 m/S 775 mmHg 75%
    05:00 -5°C° 0 mm 4 m/S 775 mmHg 74%
    06:00 -5°C° 0 mm 4 m/S 776 mmHg 75%
    07:00 -7°C° 0 mm 4 m/S 777 mmHg 75%
    08:00 -7°C° 0 mm 4 m/S 777 mmHg 75%
    09:00 -5°C° 0 mm 4 m/S 778 mmHg 74%
    10:00 -5°C° 0 mm 4 m/S 778 mmHg 73%
    11:00 -6°C° 0 mm 5 m/S 779 mmHg 73%
    12:00 -6°C° 0 mm 5 m/S 779 mmHg 72%
    13:00 -6°C° 0 mm 5 m/S 780 mmHg 72%
    14:00 -5°C° 0 mm 5 m/S 780 mmHg 71%
    15:00 -5°C° 0 mm 4 m/S 781 mmHg 73%
    16:00 -5°C° 0 mm 4 m/S 781 mmHg 75%
    17:00 -5°C° 0 mm 4 m/S 782 mmHg 77%
    18:00 -5°C° 0 mm 3 m/S 782 mmHg 77%
    19:00 -6°C° 0 mm 3 m/S 782 mmHg 77%
    20:00 -6°C° 0 mm 3 m/S 783 mmHg 78%
    21:00 -6°C° 0 mm 3 m/S 783 mmHg 78%
    22:00 -6°C° 0 mm 3 m/S 783 mmHg 78%
    23:00 -6°C° 0 mm 3 m/S 783 mmHg 78%
    Mehr zeigen